{"data":{"norad_id":55104,"epoch":"2026-05-25T04:10:19.941888Z","epoch_age_seconds":50188,"freshness":"FRESH","line1":"1 55104U 23001CZ  26145.17384192  .00017197  00000+0  32921-3 0  9998","line2":"2 55104  97.3183 213.6358 0006303 170.0732 190.0644 15.48097833188939","mean_motion":15.48097833,"eccentricity":0.0006303,"inclination_deg":97.3183,"raan_deg":213.6358,"arg_perigee_deg":170.0732,"mean_anomaly_deg":190.0644,"bstar":0.00032921,"rev_number":18893,"period_min":93.017377151771,"perigee_km":418.00457531187,"apogee_km":426.57719470371,"semimajor_km":6800.4278850078,"source":"CELESTRAK","updated_at":"2026-05-25T13:37:58.815616Z"}}